Location: 相模原市立博物館
(35.5593°N, 139.3931°E)
Time: 02:35:21
(UTC+09:00)

ISS - Visible Passes

Search period start: 18 November 2017 00:00
Search period end: 28 November 2017 00:00
Orbit: 401 x 407 km, 51.6° (Epoch: 18 November)

Date Brightness Start Highest point End Pass type
(mag) Time Alt. Az. Time Alt. Az. Time Alt. Az.
18 Nov -1.6 04:15:18 23° ENE 04:15:18 23° ENE 04:17:16 10° E visible
18 Nov -2.5 05:48:08 10° WNW 05:50:55 26° SW 05:53:41 10° S visible
19 Nov -3.8 04:58:14 49° W 04:58:45 58° SW 05:01:57 10° SE visible
20 Nov -1.2 04:08:34 20° ESE 04:08:34 20° ESE 04:09:43 10° ESE visible
21 Nov -1.7 04:51:39 17° SSW 04:51:39 17° SSW 04:52:56 10° S visible
24 Nov -0.8 18:47:59 10° SW 18:48:21 13° SW 18:48:21 13° SW visible
25 Nov -2.6 17:56:05 10° SSW 17:58:37 28° SE 17:58:37 28° SE visible
26 Nov -1.7 17:04:59 10° SSE 17:06:47 14° SE 17:08:34 10° E visible
26 Nov -1.6 18:39:47 10° WSW 18:41:29 26° W 18:41:29 26° W visible
27 Nov -3.9 17:47:17 10° SW 17:50:32 85° SE 17:51:34 41° NE visible
